Regional Weather Roundup
Issued by NWS San Diego, CA

Home | Current Version | Previous Version | Text Only | Print | Product List | Glossary On
Versions: 1 2 3 4 5 6 7 8 9 10 11 12 13 14 15 16 17 18 19 20 21 22 23 24 25 26 27 28 29 30 31 32 33 34 35 36 37 38 39 40 41 42 43 44 45 46 47 48 49 50
000
ASUS46 KSGX 081911
RWRSGX

SAN DIEGO HOURLY WEATHER ROUNDUP
NATIONAL WEATHER SERVICE SAN DIEGO CA
1100 AM PST THU DEC 08 2016

NOTE: "FAIR" INDICATES FEW OR NO CLOUDS BELOW 12,000 FEET WITH NO
SIGNIFICANT WEATHER AND/OR OBSTRUCTIONS TO VISIBILITY.

CAZ042-043-060-061-PZZ750-775-082000-

GREATER SAN DIEGO AREA

CITY           SKY/WX    TMP DP  RH WIND       PRES   REMARKS
SAN DIEGO AP   SUNNY     64  45  49 NW7       30.26F
NATIONAL CITY    N/A     63  49  59 W3        30.26F
CHULA VISTA      N/A     67  49  52 W2        30.17F
IMPERIAL BEACH MOSUNNY   67  44  43 W6        30.25F
BROWN FIELD    SUNNY     65  43  44 CALM      30.24F
MIRAMAR MCAS   SUNNY     68  45  43 VRB3      30.24F
MONTGOMERY FLD SUNNY     65  42  43 VRB5      30.25F

$$

NORTH SAN DIEGO COUNTY

CITY           SKY/WX    TMP DP  RH WIND       PRES   REMARKS
CAMP PENDLETON MOSUNNY   65  50  58 SW5       30.24F
OCEANSIDE AP   SUNNY     64  48  56 W7        30.24F
OCEANSIDE HBR    N/A     60  52  73 W3        30.28F
VISTA            N/A     61  44  53 CALM      30.24S
CARLSBAD       SUNNY     63  42  46 VRB7      30.24F
DEL MAR          N/A     63  49  60 W2        30.28S
LA JOLLA SCRIP   N/A     59  52  77 W3        30.25F
FALLBROOK        N/A     63  47  55 CALM      30.23F
ESCONDIDO        N/A     65  44  46 S2        30.26F
SAN MARCOS       N/A     64  44  47 W3        30.27F
POWAY            N/A     65  43  45 CALM      30.27F

$$

EAST SAN DIEGO COUNTY

CITY           SKY/WX    TMP DP  RH WIND       PRES   REMARKS
RAMONA         SUNNY     63  36  36 W6        30.24F
SANTEE LAKES     N/A     63  49  59 CALM      30.25F
LA MESA          N/A     63  43  49 CALM      30.19F
JAMUL            N/A     62  44  50 CALM      30.27F
DESCANSO N       N/A     56  40  55 W2        30.25F
CAMPO            N/A     62  34  35 VRB6      30.19F

$$

ORANGE COUNTY AND THE LOS ANGELES BASIN

CITY           SKY/WX    TMP DP  RH WIND       PRES   REMARKS
JOHN WAYNE AP  MOSUNNY   63  50  62 SW6       30.25F
LAGUNA BEACH     N/A     62  53  72 S2        30.21F
LAKE FOREST FR   N/A     61  44  53 W6        30.16S
HUNTINGTON BCH   N/A     64  54  71 W2        30.27F
LOS ALAMITOS   MOSUNNY   64  50  59 SW8       30.25F
FULLERTON      SUNNY     64  45  49 SW3       30.24F
LONG BEACH     SUNNY     64  44  48 SW6       30.25F
L.A. AP        PTSUNNY   64  43  46 CALM      30.25F
L.A. DOWNTOWN  SUNNY     63  43  48 CALM      30.24F

$$

THE INLAND EMPIRE

CITY           SKY/WX    TMP DP  RH WIND       PRES   REMARKS
CORONA         SUNNY     61  46  57 CALM      30.25F
CHINO          MOSUNNY   62  45  53 N3        30.26F
ONTARIO        MOSUNNY   60  41  49 S3        30.24F
SAN BERNARDINO FAIR      61  32  33 CALM      30.26S
RIVERSIDE AP   MOSUNNY   61  45  55 CALM      30.25F
MORENO VALLEY    N/A     60  47  61 CALM      28.37S
MARCH ARB      SUNNY     58  44  58 NE3       30.24F
HORSETHIEF CYN   N/A     62  39  42 CALM      30.29F
PERRIS           N/A     58  45  62 CALM      30.29S
HEMET EAST       N/A     58  33  39 CALM      30.32S
FRENCH VALLEY  NOT AVBL
TEMECULA         N/A     59  46  62 W1        30.30F

$$

SAN BERNARDINO AND RIVERSIDE COUNTY MOUNTAINS

CITY           SKY/WX    TMP DP  RH WIND       PRES   REMARKS
BIG BEAR AP    CLOUDY    46  37  71 W9G16     30.30S
ANGELUS OAKS     N/A     52  39  62 CALM      30.21F
PINE COVE        N/A     50  40  68 W5        30.28S

$$

SOUTHERN DESERT INCLUDING THE COACHELLA VALLEY

CITY           SKY/WX    TMP DP  RH WIND       PRES   REMARKS
PALM SPRINGS   MOSUNNY   63  24  22 VRB5      30.26F
PALM DESERT      N/A     65  31  27 CALM        N/A
THERMAL        SUNNY     63  22  20 MISG      30.24F
BLYTHE         SUNNY     58  13  17 CALM      30.26F
IMPERIAL AP    SUNNY     63  25  23 CALM      30.24F
EL CENTRO NAS  MOSUNNY   63  19  18 CALM      30.26F
YUMA AZ        SUNNY     65  13  13 N7        30.24
MEXICALI       SUNNY     64  12  13 CALM      30.25F

$$

UPPER DESERT

CITY           SKY/WX    TMP DP  RH WIND       PRES   REMARKS
VICTORVILLE AP SUNNY     55  27  33 CALM      30.23F
HESPERIA         N/A     56  31  39 SE2       30.44F
PALMDALE       SUNNY     56  23  27 NW5       30.24F
LANCASTER      PTSUNNY   58  36  43 N5        30.23F
EDWARDS AFB    PTSUNNY   49  23  35 NE3       30.22F
DAGGETT        SUNNY     51  17  26 NE3       30.26F
29 PALMS N     MOSUNNY   53   9  17 CALM      30.32F
NEEDLES        SUNNY     55  13  18 VRB3      30.29F

$$

REGIONAL REPORTS

CITY           SKY/WX    TMP DP  RH WIND       PRES   REMARKS
SANTA BARBARA  CLOUDY    60  49  66 SW6       30.26F
SANDBERG       CLOUDY    54  30  40 S9        30.26F
LAS VEGAS NV   MOSUNNY   50   5  16 CALM      30.28F
PHOENIX AZ     SUNNY     61  39  44 CALM      30.22F
TIJUANA        SUNNY     64  39  39 W3        30.27F
ENSENADA NW      N/A     61  32  33 W6        30.21F

$$

OFFSHORE ISLANDS

CITY           SKY/WX    TMP DP  RH WIND       PRES   REMARKS
CATALINA ARPT  SUNNY     56  49  77 VRB7      30.27S
SAN CLEMENTE I MOSUNNY   61  52  72 W10       30.28F
SAN NICOLAS IS MOSUNNY   63  55  75 W14       30.26F

$$

MARINE AND OFFSHORE BUOY REPORTS

STATION/POSITION SKY/WX   TEMP    WIND        PRES    SWELL
                          AIR SEA DIR/SP/G            HT/PER/DIR
                          (F)     (DEG/KT/KT) (MB)    (FT/S/D)
TANNER BANKS               58 61  300/  8/  8 1025.4F   3/320/12
S CLEMENTE BASIN           60 62  300/  8/ 10 1024.8R   3/280/13
SAN NICOLAS IS.               58                N/A     2/230/15
SO. S. ROSA ISLA           58 58  220/  4/  4 1025.2R   3/200/16
W. S. BARBARA CH           56 56  150/  6/  8 1025.0R   2/250/16
M. S. BARBARA CH                  270/  6/  8 1025.5
S. MONICA BASIN            59 60  280/  8/ 10 1024.5F   2/240/16
S PEDRO CHANNEL               61                N/A     2/270/11
CMP PENDLETON NS              61                N/A     2/220/15
OCEANSIDE OFFSHR              62                N/A     2/200/15
TORREY PINES OTR              62                N/A     2/220/15
POINT LOMA SOUTH              63                N/A     2/220/15

$$




USA.gov is the U.S. government's official web portal to all federal, state and local government web resources and services.